Tracking 25710 objects as of 6-Jul-2022
HD Live streaming from Space Station
objects crossing your sky now

COSMOS 2556

Track COSMOS 2556 now!
10-day predictions


NORAD ID: 52713
Int'l Code: 2022-054A
Perigee: 549.8 km
Apogee: 577.7 km
Inclination: 97.7 °
Period: 95.8 minutes
Semi major axis: 6934 km
RCS: Unknown
Launch date: May 19, 2022
Source: Commonwealth of Independent States (former USSR) (CIS)
Launch site: PLESETSK MISSILE AND SPACE COMPLEX (PKMTR)
aabbcc
Your satellite tracking list
Your tracking list is empty




NASA's NSSDC Master Catalog

Two Line Element Set (TLE):
1 52713U 22054A   22187.09892508  .00000300  00000-0  26632-4 0  9998
2 52713  97.6931 101.1055 0020061 187.5545 285.2156 15.03336186  7172
Source of the keplerian elements: AFSPC